Time,TemperatureF,DewpointF,PressureIn,WindDirection,WindDirectionDegrees,WindSpeedMPH,WindSpeedGustMPH,Humidity,HourlyPrecipIn,Conditions,Clouds,dailyrainin,SoftwareType,DateUTC
2013-12-28 00:00:00,36.0,36.0,-100.00,North,1,4.0,-999.0,102,0.00,,,0.00,,2013-12-28 06:00:00,
2013-12-28 00:42:00,36.0,36.0,-100.00,North,1,4.0,-999.0,102,0.00,,,0.00,,2013-12-28 06:42:00,
2013-12-28 00:52:00,36.0,36.0,-100.00,North,1,4.0,-999.0,102,0.00,,,0.00,,2013-12-28 06:52:00,
2013-12-28 01:00:00,35.0,35.0,-100.00,North,2,5.0,-999.0,102,0.00,,,0.00,,2013-12-28 07:00:00,
2013-12-28 01:42:00,35.0,35.0,-100.00,North,2,5.0,-999.0,102,0.00,,,0.00,,2013-12-28 07:42:00,
2013-12-28 01:52:00,35.0,35.0,-100.00,North,2,5.0,-999.0,102,0.00,,,0.00,,2013-12-28 07:52:00,
2013-12-28 02:00:00,35.0,35.0,-100.00,North,349,3.0,-999.0,102,0.00,,,0.00,,2013-12-28 08:00:00,
2013-12-28 02:42:00,35.0,35.0,-100.00,North,349,3.0,-999.0,102,0.00,,,0.00,,2013-12-28 08:42:00,
2013-12-28 02:52:00,35.0,35.0,-100.00,North,349,3.0,-999.0,102,0.00,,,0.00,,2013-12-28 08:52:00,
2013-12-28 03:00:00,35.0,35.0,-100.00,North,360,5.0,-999.0,102,0.00,,,0.00,,2013-12-28 09:00:00,
2013-12-28 03:43:00,35.0,35.0,-100.00,North,360,5.0,-999.0,102,0.00,,,0.00,,2013-12-28 09:43:00,
2013-12-28 03:53:00,35.0,35.0,-100.00,North,360,5.0,-999.0,102,0.00,,,0.00,,2013-12-28 09:53:00,
2013-12-28 04:00:00,35.0,35.0,-100.00,North,352,2.0,-999.0,102,0.00,,,0.00,,2013-12-28 10:00:00,
2013-12-28 04:43:00,35.0,35.0,-100.00,North,352,2.0,-999.0,102,0.00,,,0.00,,2013-12-28 10:43:00,
2013-12-28 04:53:00,35.0,35.0,-100.00,North,352,2.0,-999.0,102,0.00,,,0.00,,2013-12-28 10:53:00,
2013-12-28 05:00:00,35.0,35.0,-100.00,North,353,3.0,-999.0,102,0.00,,,0.00,,2013-12-28 11:00:00,
2013-12-28 05:43:00,35.0,35.0,-100.00,North,353,3.0,-999.0,102,0.00,,,0.00,,2013-12-28 11:43:00,
2013-12-28 05:52:00,35.0,35.0,-100.00,North,353,3.0,-999.0,102,0.00,,,0.00,,2013-12-28 11:52:00,
2013-12-28 06:00:00,34.0,34.0,-100.00,North,10,3.0,-999.0,103,0.00,,,0.00,,2013-12-28 12:00:00,
2013-12-28 06:42:00,34.0,34.0,-100.00,North,10,3.0,-999.0,103,0.00,,,0.00,,2013-12-28 12:42:00,
2013-12-28 06:52:00,34.0,34.0,-100.00,North,10,3.0,-999.0,103,0.00,,,0.00,,2013-12-28 12:52:00,
2013-12-28 07:00:00,33.0,33.0,-100.00,West,274,2.0,-999.0,102,0.00,,,0.00,,2013-12-28 13:00:00,
2013-12-28 07:42:00,33.0,33.0,-100.00,West,274,2.0,-999.0,102,0.00,,,0.00,,2013-12-28 13:42:00,
2013-12-28 07:52:00,33.0,33.0,-100.00,West,274,2.0,-999.0,102,0.00,,,0.00,,2013-12-28 13:52:00,
2013-12-28 08:00:00,34.0,34.0,-100.00,NNE,13,3.0,-999.0,103,0.00,,,0.00,,2013-12-28 14:00:00,
2013-12-28 08:42:00,34.0,34.0,-100.00,NNE,13,3.0,-999.0,103,0.00,,,0.00,,2013-12-28 14:42:00,
2013-12-28 08:53:00,34.0,34.0,-100.00,NNE,13,3.0,-999.0,103,0.00,,,0.00,,2013-12-28 14:53:00,
2013-12-28 09:00:00,35.0,35.0,-100.00,NNW,336,0.0,-999.0,103,0.00,,,0.00,,2013-12-28 15:00:00,
2013-12-28 09:44:00,35.0,35.0,-100.00,NNW,336,0.0,-999.0,103,0.00,,,0.00,,2013-12-28 15:44:00,
2013-12-28 09:53:00,35.0,35.0,-100.00,NNW,336,0.0,-999.0,103,0.00,,,0.00,,2013-12-28 15:53:00,
2013-12-28 10:00:00,42.0,42.0,-100.00,South,173,5.0,-999.0,103,0.00,,,0.00,,2013-12-28 16:00:00,
2013-12-28 10:43:00,42.0,42.0,-100.00,South,173,5.0,-999.0,103,0.00,,,0.00,,2013-12-28 16:43:00,
2013-12-28 10:53:00,42.0,42.0,-100.00,South,173,5.0,-999.0,103,0.00,,,0.00,,2013-12-28 16:53:00,
2013-12-28 16:00:00,57.0,43.0,-100.00,SSE,160,8.0,-999.0,60,0.00,,,0.00,,2013-12-28 22:00:00,
2013-12-28 16:42:00,57.0,43.0,-100.00,SSE,160,8.0,-999.0,60,0.00,,,0.00,,2013-12-28 22:42:00,
2013-12-28 16:52:00,57.0,43.0,-100.00,SSE,160,8.0,-999.0,60,0.00,,,0.00,,2013-12-28 22:52:00,
2013-12-28 17:00:00,54.0,42.0,-100.00,SSE,164,6.0,-999.0,64,0.00,,,0.00,,2013-12-28 23:00:00,
2013-12-28 17:43:00,54.0,42.0,-100.00,SSE,164,6.0,-999.0,64,0.00,,,0.00,,2013-12-28 23:43:00,
2013-12-28 17:53:00,54.0,42.0,-100.00,SSE,164,6.0,-999.0,64,0.00,,,0.00,,2013-12-28 23:53:00,
2013-12-28 19:00:00,47.0,41.0,-100.00,SSE,156,2.0,-999.0,81,0.00,,,0.00,,2013-12-29 01:00:00,
2013-12-28 19:42:00,47.0,41.0,-100.00,SSE,156,2.0,-999.0,81,0.00,,,0.00,,2013-12-29 01:42:00,
2013-12-28 19:52:00,47.0,41.0,-100.00,SSE,156,2.0,-999.0,81,0.00,,,0.00,,2013-12-29 01:52:00,
2013-12-28 20:00:00,44.0,41.0,-100.00,SSE,150,3.0,-999.0,89,0.00,,,0.00,,2013-12-29 02:00:00,
2013-12-28 20:42:00,44.0,41.0,-100.00,SSE,150,3.0,-999.0,89,0.00,,,0.00,,2013-12-29 02:42:00,
2013-12-28 20:52:00,44.0,41.0,-100.00,SSE,150,3.0,-999.0,89,0.00,,,0.00,,2013-12-29 02:52:00,
2013-12-28 21:00:00,-999.0,-99.9,-100.00,SSE,168,2.0,-999.0,-999,0.00,,,0.00,,2013-12-29 03:00:00,
2013-12-28 21:43:00,43.0,41.0,-100.00,SSE,168,2.0,-999.0,91,0.00,,,0.00,,2013-12-29 03:43:00,
2013-12-28 21:53:00,43.0,41.0,-100.00,SSE,168,2.0,-999.0,91,0.00,,,0.00,,2013-12-29 03:53:00,
2013-12-28 22:00:00,43.0,43.0,-100.00,South,174,4.0,-999.0,98,0.00,,,0.00,,2013-12-29 04:00:00,
2013-12-28 22:42:00,43.0,43.0,-100.00,South,174,4.0,-999.0,98,0.00,,,0.00,,2013-12-29 04:42:00,
2013-12-28 22:53:00,43.0,43.0,-100.00,South,174,4.0,-999.0,98,0.00,,,0.00,,2013-12-29 04:53:00,
2013-12-28 23:00:00,43.0,43.0,-100.00,South,172,3.0,-999.0,100,0.00,,,0.00,,2013-12-29 05:00:00,
2013-12-28 23:43:00,43.0,43.0,-100.00,South,172,3.0,-999.0,100,0.00,,,0.00,,2013-12-29 05:43:00,
2013-12-28 23:53:00,43.0,43.0,-100.00,South,172,3.0,-999.0,100,0.00,,,0.00,,2013-12-29 05:53:00,